Weather History for Steamboat Springs, CO

Change the Weather History Date:

Saturday, March 23, 2013

  Actual Average Record
Temperature  
Mean Temperature 20 °F -  
Max Temperature 27 °F 44 °F 68 °F (2012)
Min Temperature 13 °F 17 °F -10 °F (1917)
Degree Days  
Heating Degree Days 45    
Moisture  
Dew Point 14 °F    
Average Humidity 81    
Maximum Humidity 96    
Minimum Humidity 46    
Precipitation  
Precipitation 0.00 in - - ()
Sea Level Pressure  
Sea Level Pressure 29.89 in    
Wind  
Wind Speed 2 mph (SSW)    
Max Wind Speed 10 mph    
Max Gust Speed -    
Visibility 4 miles    
Events      
Averages and records for this station are not official NWS values.
T = Trace of Precipitation, MM = Missing Value Source: NWS Daily Summary

Daily Weather History Graph

Daily Weather History Graph

Search for Another Location

Airport:

Trip Planner

Search our weather history database for the weather conditions in past years. The results will help you decide how hot, cold, wet, or windy it might be!

Date:

Astronomy

Mar. 23, 2013 Rise Set
Actual Time 7:05 AM MDT 7:23 PM MDT
Civil Twilight 6:38 AM MDT 7:50 PM MDT
Nautical Twilight 6:06 AM MDT 8:22 PM MDT
Astronomical Twilight 5:33 AM MDT 8:55 PM MDT
Moon 3:52 PM MDT (3/23) 4:44 AM MDT (3/23)
Length of Visible Light 13h 12m
Length of Day
12h 17m
Waxing Gibbous, 85% of the Moon is Illuminated
Mar 23
Waxing Gibbous
Mar 27
Full
Apr 2
Last Quarter
Apr 10
New
Apr 18
First Quarter

Hourly Weather History & Observations

Time (MDT) Temp. Windchill Dew Point Humidity Pressure Visibility Wind Dir Wind Speed Gust Speed Precip Events Conditions
12:15 AM 19.9 °F - 18.5 °F 94% 29.77 in 4.0 mi Calm Calm - N/A   Overcast
12:35 AM 19.8 °F - 18.1 °F 93% 29.77 in 2.5 mi Calm Calm - N/A   Overcast
12:55 AM 19.9 °F - 18.5 °F 94% 29.76 in 2.5 mi Calm Calm - N/A   Overcast
1:15 AM 19.8 °F 10.8 °F 18.7 °F 96% 29.78 in 0.8 mi SW 6.9 mph - N/A   Overcast
1:35 AM 18.5 °F 9.3 °F 17.4 °F 96% 29.78 in 1.0 mi SW 6.9 mph - N/A   Overcast
1:55 AM 18.3 °F 11.5 °F 16.5 °F 93% 29.79 in 2.5 mi South 4.6 mph - N/A   Overcast
2:15 AM 18.0 °F 12.7 °F 15.8 °F 91% 29.79 in 3.0 mi SSE 3.5 mph - N/A   Overcast
2:35 AM 17.8 °F - 15.6 °F 91% 29.78 in 2.0 mi Calm Calm - N/A   Overcast
2:55 AM 17.4 °F - 15.4 °F 92% 29.78 in 1.8 mi Calm Calm - N/A   Overcast
3:15 AM 17.1 °F - 14.9 °F 91% 29.78 in 3.0 mi Calm Calm - N/A   Overcast
3:35 AM 16.9 °F - 14.5 °F 91% 29.78 in 5.0 mi Calm Calm - N/A   Overcast
3:55 AM 16.5 °F - 14.0 °F 90% 29.78 in 5.0 mi Calm Calm - N/A   Overcast
4:15 AM 16.5 °F - 13.8 °F 89% 29.78 in 2.5 mi Calm Calm - N/A   Overcast
4:35 AM 16.5 °F - 14.0 °F 90% 29.78 in 1.0 mi Calm Calm - N/A   Overcast
4:55 AM 16.5 °F - 14.5 °F 92% 29.78 in 1.0 mi Calm Calm - N/A   Overcast
5:15 AM 16.3 °F - 14.7 °F 93% 29.78 in 1.2 mi Calm Calm - N/A   Overcast
5:35 AM 16.3 °F - 14.5 °F 93% 29.78 in 2.5 mi Calm Calm - N/A   Overcast
5:55 AM 15.8 °F - 14.0 °F 93% 29.79 in 2.5 mi Calm Calm - N/A   Overcast
6:15 AM 15.4 °F - 14.0 °F 94% 29.80 in 4.0 mi Calm Calm - N/A   Overcast
6:35 AM 15.8 °F - 14.0 °F 93% 29.80 in 2.0 mi Calm Calm - N/A   Overcast
7:15 AM 15.4 °F - 13.5 °F 92% 29.80 in 2.5 mi Calm Calm - N/A   Overcast
7:35 AM 15.8 °F - 14.0 °F 93% 29.82 in 3.0 mi Calm Calm - N/A   Overcast
7:55 AM 15.4 °F - 13.1 °F 90% 29.82 in 4.0 mi Calm Calm - N/A   Overcast
8:15 AM 16.3 °F - 12.6 °F 85% 29.83 in 10.0 mi Calm Calm - N/A   Overcast
8:35 AM 16.2 °F - 11.5 °F 82% 29.83 in 3.0 mi Calm Calm - N/A   Overcast
8:55 AM 16.7 °F - 12.2 °F 82% 29.84 in 3.0 mi Calm Calm - N/A   Overcast
9:15 AM 17.2 °F - 10.2 °F 74% 29.84 in 4.0 mi Calm Calm - N/A   Overcast
9:35 AM 17.6 °F - 12.2 °F 79% 29.84 in 2.0 mi Calm Calm - N/A   Overcast
9:55 AM 18.0 °F - 12.2 °F 78% 29.86 in 1.0 mi Calm Calm - N/A   Overcast
10:15 AM 18.3 °F - 12.0 °F 76% 29.86 in 1.2 mi Calm Calm - N/A   Overcast
10:35 AM 19.0 °F - 12.4 °F 75% 29.87 in 1.0 mi Calm Calm - N/A   Overcast
10:55 AM 20.5 °F - 12.7 °F 72% 29.88 in 1.0 mi Calm Calm - N/A   Overcast
11:15 AM 21.6 °F - 12.7 °F 69% 29.88 in 2.0 mi Calm Calm - N/A   Overcast
11:35 AM 22.5 °F 17.8 °F 13.3 °F 68% 29.89 in 2.0 mi SW 3.5 mph - N/A   Overcast
11:55 AM 23.2 °F 17.2 °F 13.8 °F 67% 29.89 in 1.2 mi SW 4.6 mph - N/A   Overcast
12:15 PM 23.9 °F 18.0 °F 13.1 °F 63% 29.90 in 2.0 mi SW 4.6 mph - N/A   Overcast
12:35 PM 25.0 °F 19.3 °F 12.4 °F 59% 29.90 in 4.0 mi SW 4.6 mph - N/A   Overcast
12:55 PM 25.2 °F 18.3 °F 12.2 °F 58% 29.90 in 10.0 mi SSW 5.8 mph - N/A   Overcast
1:15 PM 25.3 °F 17.6 °F 10.8 °F 54% 29.91 in 10.0 mi SSW 6.9 mph - N/A   Overcast
1:35 PM 26.6 °F 21.2 °F 9.0 °F 47% 29.91 in 10.0 mi SW 4.6 mph - N/A   Overcast
1:55 PM 27.1 °F 20.7 °F 8.8 °F 46% 29.92 in 10.0 mi WSW 5.8 mph - N/A   Overcast
2:15 PM 26.4 °F - 13.3 °F 58% 29.92 in 1.5 mi Calm Calm - N/A   Overcast
2:35 PM 26.6 °F 21.2 °F 13.1 °F 57% 29.92 in 3.0 mi WNW 4.6 mph - N/A   Overcast
2:55 PM 25.3 °F 17.6 °F 13.3 °F 60% 29.92 in 1.8 mi WSW 6.9 mph - N/A   Overcast
3:15 PM 25.9 °F 20.3 °F 13.1 °F 58% 29.92 in 5.0 mi WSW 4.6 mph - N/A   Overcast
3:35 PM 25.3 °F 21.1 °F 13.3 °F 60% 29.92 in 10.0 mi WNW 3.5 mph - N/A   Overcast
3:55 PM 24.3 °F 18.4 °F 13.8 °F 64% 29.94 in 1.8 mi North 4.6 mph - N/A   Overcast
4:15 PM 24.8 °F - 14.5 °F 65% 29.94 in 1.0 mi Calm Calm - N/A   Overcast
4:35 PM 22.5 °F - 13.3 °F 68% 29.94 in 10.0 mi Calm Calm - N/A   Overcast
4:55 PM 22.1 °F - 13.6 °F 70% 29.95 in 1.5 mi Calm Calm - N/A   Overcast
5:15 PM 21.7 °F - 14.4 °F 73% 29.95 in 1.0 mi Calm Calm - N/A   Overcast
5:35 PM 20.7 °F 9.5 °F 15.6 °F 81% 29.95 in 0.8 mi SW 10.4 mph - N/A   Overcast
5:55 PM 19.8 °F 10.8 °F 15.6 °F 84% 29.97 in 0.2 mi West 6.9 mph - N/A   Overcast
6:15 PM 19.4 °F 14.3 °F 15.1 °F 83% 29.98 in 4.0 mi SW 3.5 mph - N/A   Overcast
6:35 PM 18.5 °F - 14.2 °F 83% 29.99 in 0.5 mi Calm Calm - N/A   Overcast
6:55 PM 17.6 °F 7.3 °F 14.4 °F 87% 29.99 in 0.2 mi ESE 8.1 mph - N/A   Overcast
7:15 PM 17.2 °F 8.9 °F 15.4 °F 93% 30.00 in 1.2 mi ESE 5.8 mph - N/A   Overcast
7:35 PM 17.1 °F 8.7 °F 15.3 °F 93% 30.00 in 1.0 mi ESE 5.8 mph - N/A   Overcast
7:55 PM 16.7 °F 8.3 °F 14.9 °F 93% 30.00 in 2.0 mi SE 5.8 mph - N/A   Overcast
8:15 PM 16.7 °F 9.6 °F 14.9 °F 93% 30.02 in 4.0 mi ESE 4.6 mph - N/A   Overcast
8:35 PM 16.7 °F - 14.9 °F 93% 30.02 in 2.5 mi Calm Calm - N/A   Overcast
8:55 PM 16.2 °F - 14.0 °F 91% 30.03 in 4.0 mi Calm Calm - N/A   Overcast
9:15 PM 15.4 °F - 13.8 °F 93% 30.04 in 7.0 mi Calm Calm - N/A   Scattered Clouds
9:35 PM 13.6 °F - 12.4 °F 95% 30.05 in 10.0 mi Calm Calm - N/A   Scattered Clouds
9:55 PM 13.6 °F - 12.6 °F 95% 30.06 in 10.0 mi Calm Calm - N/A   Mostly Cloudy
10:15 PM 14.4 °F - 12.6 °F 93% 30.05 in 10.0 mi Calm Calm - N/A   Overcast
10:35 PM 14.0 °F 5.1 °F 11.8 °F 91% 30.05 in 5.0 mi East 5.8 mph - N/A   Overcast
10:55 PM 14.9 °F 9.2 °F 12.7 °F 91% 30.05 in 5.0 mi ENE 3.5 mph - N/A   Overcast
11:15 PM 14.5 °F 7.1 °F 12.2 °F 90% 30.05 in 10.0 mi East 4.6 mph - N/A   Overcast
11:35 PM 14.9 °F 6.1 °F 10.6 °F 83% 30.05 in 10.0 mi ENE 5.8 mph - N/A   Overcast
11:55 PM 14.5 °F - 9.9 °F 82% 30.05 in 10.0 mi Calm Calm - N/A   Overcast